Bloomington, IN

7:27 AM EST on January 24, 2017 (GMT -0500)
Monroe County | | Change Station
Active Advisory: Flood Warning

Elev 843 ft 39.15 °N, 86.62 °W | Updated 34 minutes ago

Overcast
Overcast
40 °F
Feels Like 37 °F
N
5
Wind Variable Wind from WNW

Today
High -- | Low -- °F
--% Chance of Precip.
Yesterday
High -- | Low -- °F
Precip. -- in
Pressure 29.87 in
Visibility 10.0 miles
Clouds Overcast 1800 ft
Windchill 37 °F
Dew Point 33 °F
Humidity 77%
Rainfall 0.00 in
Snow Depth Not available.
7:59 AM 5:58 PM
Waning Crescent, 12% visible
METAR KBMG 241153Z 30004KT 10SM OVC018 04/01 A2986 RMK AO2 SLP114 T00440006 10044 20039 53016
Pressure 29.87 in
Visibility 10.0 miles
Clouds Overcast 1800 ft
Windchill 37 °F
Dew Point 33 °F
Humidity 77%
Rainfall 0.00 in
Snow Depth Not available.
7:59 AM 5:58 PM
Waning Crescent, 12% visible
METAR KBMG 241153Z 30004KT 10SM OVC018 04/01 A2986 RMK AO2 SLP114 T00440006 10044 20039 53016

Get Your Daily Forecast Email!

Thanks for signing up!

Be on the lookout for a verification email in your inbox.

You'll start receiving the daily forecast at 8 AM.

×

10-Day Weather Forecast

Almanac

Astronomy

Jan. 24, 2017 Rise Set
Actual Time
Civil Twilight
Nautical Twilight
Astronomical Twilight
Moon
Length of Visible Light
Length of Day
Tomorrow will be .
, % of the Moon is Illuminated

Today's Extremes

State Highs State Lows

Community

WunderPhotos

Upload Photos

1,962,540 photos uploaded!

WunderBlog® & News

Nearby

Air Quality

  Air Quality AQ Index Pollutant
Not available.

Snow Depth

Station Depth Elevation

Earthquake Activity

City Distance Mag. Time & Date
Minimum magnitude displayed is 2.5.

Coastal Water Temperatures

Place Temperature

Stations

Nearby Weather Stations

Station Location Temp. Windchill Dew Point Humidity Wind Precip. Elev Updated Type
                   

Watches & Warnings

Flood Warning
Issued: 12:08 AM EST Jan. 24, 2017 – National Weather Service

The Flood Warning continues for
the White River at Spencer.
* Until Wednesday morning.
* At 11:30 PM Monday the stage was 16.0 feet.
* Flood stage is 14.0 feet.
* Minor flooding is occurring and minor flooding is forecast.
* Forecast... the river will continue to fall to below flood stage by
this evening.
* At 16.0 feet... flood water affects Gravel Pit. High water concerns
farmers in agricultural season about crops and livestock. Lowest
portions of trails 1 and 7 in mccormicks creek park flood.


Lat... Lon 3936 8666 3933 8674 3913 8696 3911 8692
      3928 8675 3934 8665